TimeCST,TemperatureF,Dew PointF,Humidity,Sea Level PressureIn,VisibilityMPH,Wind Direction,Wind SpeedMPH,Gust SpeedMPH,PrecipitationIn,Events,Conditions,WindDirDegrees,DateUTC
12:54 AM,23.0,18.0,81,29.88,10.0,SSE,4.6,-,N/A,,Overcast,150,2012-12-11 06:54:00
1:54 AM,21.9,18.0,85,29.88,10.0,SSE,4.6,-,N/A,,Overcast,150,2012-12-11 07:54:00
2:54 AM,21.9,18.0,85,29.87,9.0,Calm,Calm,-,0.00,Snow,Light Snow,0,2012-12-11 08:54:00
3:54 AM,21.0,18.0,88,29.86,10.0,Calm,Calm,-,0.00,,Overcast,0,2012-12-11 09:54:00
4:54 AM,21.0,18.0,88,29.86,10.0,SE,3.5,-,N/A,,Overcast,140,2012-12-11 10:54:00
5:54 AM,21.9,19.0,89,29.85,10.0,SSE,5.8,-,N/A,,Overcast,160,2012-12-11 11:54:00
6:54 AM,21.0,18.0,88,29.86,10.0,South,4.6,-,0.00,,Mostly Cloudy,170,2012-12-11 12:54:00
8:38 AM,21.2,17.6,86,29.79,10.0,South,8.1,-,N/A,,Overcast,170,2012-12-11 14:38:00
8:54 AM,21.0,17.1,85,29.86,10.0,South,9.2,-,N/A,,Overcast,180,2012-12-11 14:54:00
9:08 AM,21.2,17.6,86,29.80,10.0,South,10.4,-,N/A,,Overcast,180,2012-12-11 15:08:00
9:40 AM,21.2,17.6,86,29.79,10.0,South,9.2,-,N/A,,Overcast,180,2012-12-11 15:40:00
9:54 AM,21.9,18.0,85,29.85,10.0,South,8.1,-,N/A,,Overcast,170,2012-12-11 15:54:00
10:54 AM,23.0,17.1,78,29.83,10.0,South,8.1,-,N/A,,Overcast,180,2012-12-11 16:54:00
11:54 AM,24.1,16.0,71,29.81,10.0,South,9.2,-,N/A,,Overcast,180,2012-12-11 17:54:00
12:32 PM,24.8,15.8,69,29.74,8.0,South,12.7,-,N/A,,Overcast,180,2012-12-11 18:32:00
12:54 PM,24.1,17.1,75,29.80,10.0,South,8.1,-,N/A,,Overcast,190,2012-12-11 18:54:00
1:54 PM,24.1,16.0,71,29.80,7.0,SSW,9.2,17.3,0.00,,Overcast,200,2012-12-11 19:54:00
2:54 PM,23.0,15.1,72,29.81,10.0,SW,12.7,18.4,0.00,,Overcast,230,2012-12-11 20:54:00
3:54 PM,21.9,14.0,72,29.84,10.0,WSW,12.7,17.3,N/A,,Overcast,240,2012-12-11 21:54:00
4:54 PM,21.0,12.9,71,29.87,10.0,West,8.1,-,N/A,,Overcast,260,2012-12-11 22:54:00
5:54 PM,21.0,12.9,71,29.88,10.0,WSW,10.4,-,N/A,,Overcast,240,2012-12-11 23:54:00
6:54 PM,19.9,12.0,71,29.91,10.0,West,6.9,-,N/A,,Overcast,280,2012-12-12 00:54:00
7:54 PM,19.9,12.0,71,29.93,10.0,West,6.9,-,N/A,,Overcast,280,2012-12-12 01:54:00
8:54 PM,19.0,10.9,71,29.95,10.0,WSW,13.8,19.6,0.00,,Overcast,250,2012-12-12 02:54:00
9:54 PM,18.0,10.0,71,29.97,10.0,West,11.5,-,0.00,,Overcast,280,2012-12-12 03:54:00
10:54 PM,18.0,10.0,71,30.00,9.0,WNW,6.9,-,0.00,Snow,Light Snow,290,2012-12-12 04:54:00
11:54 PM,18.0,10.9,74,30.02,9.0,West,6.9,-,0.00,,Overcast,280,2012-12-12 05:54:00